Regional Weather Roundup
Issued by NWS

Home | Current Version | Previous Version | Graphics & Text | Print | Product List | Glossary On
Versions: 1 2 3 4 5 6 7 8 9 10 11 12 13 14 15 16 17 18 19 20 21 22 23 24 25 26 27 28 29 30 31 32 33 34 35 36 37 38 39 40 41 42 43 44 45 46 47 48 49 50
854
ASUS44 KMEG 030400
RWRTN
TENNESSEE HOURLY STATE WEATHER ROUNDUP
NATIONAL WEATHER SERVICE MEMPHIS TN
1100 PM CDT MON MAY 02 2016

TNZ002-004-019-021-049-052-054-088>092-030500-
WEST TENNESSEE

CITY           SKY/WX    TMP DP  RH WIND       PRES   REMARKS
MEMPHIS INTL   MOCLDY    62  57  83 NW3       30.00S
NWS MEMPHIS      N/A     58 N/A N/A MISG        N/A
JACKSON        CLOUDY    59  57  93 CALM      29.99S
DYERSBURG      CLOUDY    61  52  72 N9          N/A
UNION CITY     CLOUDY    57  52  82 N7        30.00S
LEXINGTON      CLOUDY    57  57 100 CALM      29.98S
$$

TNZ008-025-027-028-033-062-065-066-030500-
NORTH MIDDLE TENNESSEE

CITY           SKY/WX    TMP DP  RH WIND       PRES   REMARKS
NASHVILLE      CLOUDY    60  56  86 NW5       29.98S
CLARKSVILLE    CLOUDY    58  51  78 NW8       29.99S
COOKEVILLE     MOCLDY    61  61 100 N3        29.94F
CROSSVILLE     CLOUDY    61  57  87 CALM      29.96F
$$

TNZ061-075-076-078-094-096-097-030500-
SOUTH MIDDLE TENNESSEE

CITY           SKY/WX    TMP DP  RH WIND       PRES   REMARKS
TULLAHOMA      CLOUDY    59  59 100 CALM      29.97S
WINCHESTER     CLOUDY    63  61  94 CALM      29.96S
MCMINNVILLE    CLOUDY    61  61 100 CALM      29.96S
COLUMBIA       CLOUDY   N/A N/A N/A CALM      29.96F
SHELBYVILLE    CLOUDY    61  61 100 N5        29.97F
$$

TNZ017-018-042-046-047-030500-
NORTHEAST TENNESSEE

CITY           SKY/WX    TMP DP  RH WIND       PRES   REMARKS
TRI CITIES     CLOUDY    59  57  93 CALM      29.92F
$$

TNZ012-013-036-069-073-074-030500-
CENTRAL EAST TENNESSEE

CITY           SKY/WX    TMP DP  RH WIND       PRES   REMARKS
KNOXVILLE      CLOUDY    62  60  93 NW6       29.92S
OAK RIDGE      CLOUDY    62  59  90 CALM      29.94S
GATLINBURG     MOCLDY    61  61 100 CALM      29.91S
$$

TNZ083-085-099-030500-
SOUTHEAST TENNESSEE

CITY           SKY/WX    TMP DP  RH WIND       PRES   REMARKS
CHATTANOOGA    CLOUDY    66  63  90 CALM      29.93S FOG
$$

SKY/WX REPORTED AS FAIR MEANS FEW OR NO CLOUDS BELOW
12 THOUSAND FEET.





USA.gov is the U.S. government's official web portal to all federal, state and local government web resources and services.